When you browse on this site, cookies collect data to enhance your experience and personalize the content and advertising you see.
Visit our Privacy Policy to learn more. By continuing to use the site, you agree to this use of cookies and data.

Stündliche Wetter Gasni

Heute, 7 August, Freitag

Zeit Temperatur Niederschläge Wind Luftdruck Luftfeuchtigkeit
00:00 +26°C° 0 mm 2 m/S 588 mmHg 51%
01:00 +26°C° 0 mm 2 m/S 588 mmHg 52%
02:00 +25°C° 0 mm 2 m/S 588 mmHg 53%
03:00 +24°C° 0 mm 1 m/S 588 mmHg 55%
04:00 +24°C° 0 mm 1 m/S 588 mmHg 56%
05:00 +24°C° 0 mm 1 m/S 588 mmHg 58%
06:00 +24°C° 0 mm 1 m/S 588 mmHg 55%
07:00 +25°C° 0 mm 1 m/S 589 mmHg 52%
08:00 +26°C° 0 mm 1 m/S 589 mmHg 49%
09:00 +27°C° 0 mm 1 m/S 589 mmHg 44%
10:00 +28°C° 0 mm 1 m/S 589 mmHg 40%
11:00 +29°C° 0 mm 1 m/S 590 mmHg 35%
12:00 +31°C° 0 mm 2 m/S 590 mmHg 31%
13:00 +32°C° 0 mm 2 m/S 590 mmHg 27%
14:00 +34°C° 0 mm 3 m/S 590 mmHg 23%
15:00 +34°C° 0 mm 2 m/S 589 mmHg 22%
16:00 +34°C° 0 mm 2 m/S 589 mmHg 22%
17:00 +34°C° 0 mm 2 m/S 589 mmHg 21%
18:00 +33°C° 0 mm 3 m/S 589 mmHg 25%
19:00 +32°C° 0 mm 5 m/S 588 mmHg 30%
20:00 +30°C° 0 mm 6 m/S 588 mmHg 34%
21:00 +29°C° 0.1 mm 5 m/S 588 mmHg 38%
22:00 +28°C° 0.1 mm 4 m/S 588 mmHg 42%
23:00 +27°C° 0.1 mm 3 m/S 588 mmHg 45%

Morgen, 8 August, Samstag

Zeit Temperatur Niederschläge Wind Luftdruck Luftfeuchtigkeit
00:00 +27°C° 0 mm 2 m/S 588 mmHg 46%
01:00 +26°C° 0 mm 2 m/S 588 mmHg 47%
02:00 +26°C° 0 mm 2 m/S 587 mmHg 48%
03:00 +25°C° 0 mm 1 m/S 587 mmHg 50%
04:00 +25°C° 0 mm 1 m/S 587 mmHg 52%
05:00 +22°C° 0 mm 0 m/S 586 mmHg 54%
06:00 +23°C° 0 mm 0 m/S 586 mmHg 51%
07:00 +23°C° 0 mm 0 m/S 587 mmHg 49%
08:00 +26°C° 0 mm 1 m/S 587 mmHg 47%
09:00 +27°C° 0 mm 1 m/S 588 mmHg 43%
10:00 +28°C° 0 mm 1 m/S 588 mmHg 38%
11:00 +30°C° 0 mm 2 m/S 588 mmHg 34%
12:00 +31°C° 0 mm 2 m/S 588 mmHg 32%
13:00 +33°C° 0 mm 3 m/S 588 mmHg 30%
14:00 +34°C° 0 mm 3 m/S 588 mmHg 27%
15:00 +32°C° 0.3 mm 5 m/S 587 mmHg 31%
16:00 +30°C° 0.3 mm 6 m/S 586 mmHg 35%
17:00 +28°C° 0.3 mm 8 m/S 585 mmHg 39%
18:00 +28°C° 0.2 mm 7 m/S 585 mmHg 39%
19:00 +27°C° 0.2 mm 5 m/S 585 mmHg 39%
20:00 +27°C° 0.2 mm 4 m/S 586 mmHg 38%
21:00 +26°C° 0 mm 3 m/S 586 mmHg 41%
22:00 +26°C° 0 mm 2 m/S 586 mmHg 44%
23:00 +25°C° 0 mm 1 m/S 586 mmHg 47%

übermorgen, 9 August, Sonntag

Zeit Temperatur Niederschläge Wind Luftdruck Luftfeuchtigkeit
00:00 +25°C° 0 mm 1 m/S 585 mmHg 49%
01:00 +24°C° 0 mm 1 m/S 585 mmHg 51%
02:00 +22°C° 0 mm 0 m/S 585 mmHg 53%
03:00 +22°C° 0 mm 0 m/S 584 mmHg 53%
04:00 +21°C° 0 mm 0 m/S 584 mmHg 54%
05:00 +21°C° 0 mm 0 m/S 584 mmHg 55%
06:00 +22°C° 0 mm 0 m/S 584 mmHg 52%
07:00 +22°C° 0 mm 0 m/S 585 mmHg 50%
08:00 +23°C° 0 mm 0 m/S 585 mmHg 47%
09:00 +26°C° 0 mm 1 m/S 585 mmHg 43%
10:00 +28°C° 0 mm 1 m/S 586 mmHg 39%
11:00 +29°C° 0 mm 2 m/S 586 mmHg 35%
12:00 +30°C° 0 mm 2 m/S 586 mmHg 32%
13:00 +31°C° 0 mm 3 m/S 586 mmHg 29%
14:00 +34°C° 0 mm 4 m/S 586 mmHg 26%
15:00 +33°C° 0 mm 4 m/S 586 mmHg 28%
16:00 +32°C° 0 mm 4 m/S 585 mmHg 30%
17:00 +32°C° 0 mm 5 m/S 585 mmHg 32%
18:00 +30°C° 0 mm 4 m/S 585 mmHg 35%
19:00 +29°C° 0 mm 4 m/S 585 mmHg 38%
20:00 +29°C° 0 mm 3 m/S 585 mmHg 41%
21:00 +28°C° 0 mm 3 m/S 585 mmHg 45%
22:00 +27°C° 0 mm 3 m/S 585 mmHg 48%
23:00 +27°C° 0 mm 3 m/S 585 mmHg 52%

10 August, Montag

Zeit Temperatur Niederschläge Wind Luftdruck Luftfeuchtigkeit
00:00 +26°C° 0 mm 3 m/S 585 mmHg 56%
01:00 +25°C° 0 mm 2 m/S 585 mmHg 59%
02:00 +25°C° 0 mm 2 m/S 584 mmHg 62%
03:00 +24°C° 0 mm 1 m/S 584 mmHg 63%
04:00 +24°C° 0 mm 1 m/S 584 mmHg 64%
05:00 +21°C° 0 mm 0 m/S 584 mmHg 66%
06:00 +22°C° 0 mm 0 m/S 584 mmHg 62%
07:00 +23°C° 0 mm 0 m/S 584 mmHg 58%
08:00 +25°C° 0 mm 1 m/S 585 mmHg 55%
09:00 +27°C° 0 mm 1 m/S 585 mmHg 49%
10:00 +28°C° 0 mm 1 m/S 585 mmHg 43%
11:00 +30°C° 0 mm 1 m/S 586 mmHg 38%
12:00 +31°C° 0 mm 2 m/S 586 mmHg 34%
13:00 +32°C° 0 mm 2 m/S 586 mmHg 30%
14:00 +34°C° 0 mm 3 m/S 586 mmHg 26%
15:00 +35°C° 0 mm 4 m/S 586 mmHg 25%
16:00 +35°C° 0 mm 5 m/S 586 mmHg 25%
17:00 +35°C° 0 mm 5 m/S 585 mmHg 24%
18:00 +34°C° 0 mm 6 m/S 586 mmHg 27%
19:00 +33°C° 0 mm 6 m/S 586 mmHg 30%
20:00 +32°C° 0 mm 6 m/S 586 mmHg 33%
21:00 +30°C° 0.1 mm 6 m/S 586 mmHg 39%
22:00 +29°C° 0.1 mm 5 m/S 586 mmHg 45%
23:00 +28°C° 0.1 mm 5 m/S 586 mmHg 51%

11 August, Dienstag

Zeit Temperatur Niederschläge Wind Luftdruck Luftfeuchtigkeit
00:00 +27°C° 0.3 mm 4 m/S 585 mmHg 53%
01:00 +25°C° 0.3 mm 3 m/S 585 mmHg 56%
02:00 +24°C° 0.3 mm 2 m/S 584 mmHg 58%
03:00 +24°C° 0 mm 2 m/S 584 mmHg 57%
04:00 +24°C° 0 mm 2 m/S 584 mmHg 57%
05:00 +24°C° 0 mm 1 m/S 584 mmHg 56%
06:00 +25°C° 0 mm 1 m/S 585 mmHg 51%
07:00 +25°C° 0 mm 1 m/S 585 mmHg 46%
08:00 +26°C° 0 mm 1 m/S 586 mmHg 40%
09:00 +28°C° 0 mm 1 m/S 586 mmHg 36%
10:00 +29°C° 0 mm 1 m/S 586 mmHg 31%
11:00 +30°C° 0 mm 1 m/S 587 mmHg 26%
12:00 +32°C° 0 mm 2 m/S 587 mmHg 23%
13:00 +34°C° 0 mm 2 m/S 587 mmHg 20%
14:00 +35°C° 0 mm 3 m/S 587 mmHg 17%
15:00 +35°C° 0 mm 3 m/S 587 mmHg 17%
16:00 +36°C° 0 mm 3 m/S 587 mmHg 16%
17:00 +36°C° 0 mm 4 m/S 587 mmHg 16%
18:00 +35°C° 0 mm 4 m/S 587 mmHg 17%
19:00 +34°C° 0 mm 4 m/S 587 mmHg 19%
20:00 +33°C° 0 mm 4 m/S 587 mmHg 20%
21:00 +32°C° 0 mm 4 m/S 587 mmHg 27%
22:00 +29°C° 0 mm 4 m/S 587 mmHg 35%
23:00 +28°C° 0 mm 3 m/S 587 mmHg 42%

12 August, Mittwoch

Zeit Temperatur Niederschläge Wind Luftdruck Luftfeuchtigkeit
00:00 +27°C° 0.1 mm 3 m/S 586 mmHg 48%
01:00 +26°C° 0.1 mm 2 m/S 586 mmHg 54%
02:00 +26°C° 0.1 mm 2 m/S 586 mmHg 60%
03:00 +25°C° 0 mm 2 m/S 585 mmHg 60%
04:00 +25°C° 0 mm 1 m/S 585 mmHg 60%
05:00 +24°C° 0 mm 1 m/S 585 mmHg 60%
06:00 +25°C° 0 mm 1 m/S 586 mmHg 55%
07:00 +25°C° 0 mm 1 m/S 586 mmHg 50%
08:00 +26°C° 0 mm 1 m/S 586 mmHg 45%
09:00 +27°C° 0 mm 1 m/S 587 mmHg 37%
10:00 +29°C° 0 mm 1 m/S 587 mmHg 29%
11:00 +30°C° 0 mm 2 m/S 587 mmHg 21%
12:00 +32°C° 0 mm 2 m/S 587 mmHg 18%
13:00 +34°C° 0 mm 2 m/S 588 mmHg 16%
14:00 +35°C° 0 mm 2 m/S 588 mmHg 13%
15:00 +36°C° 0 mm 2 m/S 587 mmHg 13%
16:00 +36°C° 0 mm 3 m/S 587 mmHg 12%
17:00 +37°C° 0 mm 3 m/S 587 mmHg 12%
18:00 +35°C° 0 mm 3 m/S 587 mmHg 12%
19:00 +34°C° 0 mm 4 m/S 587 mmHg 12%
20:00 +33°C° 0 mm 4 m/S 587 mmHg 12%
21:00 +32°C° 0 mm 4 m/S 587 mmHg 17%
22:00 +29°C° 0 mm 3 m/S 587 mmHg 22%
23:00 +28°C° 0 mm 3 m/S 587 mmHg 27%
Mehr zeigen